Voltar ao catálogo

TITAN 3C TRANSTAGE DEB

AtivoLEO
NORAD 2799·DEBRIS·🇺🇸 United States

Lançado Oct 15, 1965 de Cape Canaveral Space Force Station

Loading…

Próximas Passagens (próximas 24 horas)

TLE

AtualizadoSource: Space-Track

Época: Sep 14, 2026, 00:53 UTC

1 02799U 65082KX  26257.03698759  .00001060  00000-0  14951-3 0  9997
2 02799  32.0551 167.7435 0032864  17.2962  92.5251 14.74314379169270

Acompanhe TITAN 3C TRANSTAGE DEB em tempo real com AllMySat

Download on the App Store